Temp
31 31 30 30 30 30 29 30 30 29 28 27 27 28 27 28 28 28 28 28 28 28 28 28 28 28 29 28 28 28 29 28 29 29 29 29 29 28 30 29 29 29
29 30 31 30 29 30 29 28 28 29 28 27 27 26 28 27 27 27 27 27 27 27 27 27 28 28 28 28 27 27 27 27 27 29 27 27 28 27 28 28 28 28
28 28 28 28 28 27 28 28 28 27 27 27 26 27 28 27 26 25 26 26 26 26 27 27 27 27 27 27 26 26 26 27 27 27 27 26 27 27 27 27 28 28
28 28 28 27 27 27 27 27 26 26 26 27 25 26 27 28 26 25 25 26 25 25 25 25 26 26 25 26 25 26 25 25 26 25 26 26 27 27 27 27 27 27
28 28 28 28 27 26 26 27 25 25 25 26 26 25 25 25 25 26 26 25 25 24 25 24 24 24 24 24 24 24 25 25 25 25 25 25 26 26 27 27 26 26
30 29 28 28 27 27 28 27 26 26 25 26 26 26 25 25 25 25 25 24 25 24 24 24 24 24 24 24 24 24 24 24 25 24 24 24 25 25 27 26 25 26
27 26 26 24 25 25 25 25 25 25 24 24 24 24 23 24 24 24 24 24 24 24 24 24 24 24 24 23 23 24 24 24 24 24 24 24 24 24 25 25 25 25
26 25 24 24 24 24 24 25 24 24 25 24 24 24 24 23 23 23 23 22 23 23 23 23 23 23 23 23 23 24 24 25 25 24 23 23 24 24 24 26 25 25
24 25 24 24 25 24 24 24 24 24 24 24 24 24 24 24 23 22 23 22 22 23 22 22 23 22 23 23 23 22 23 23 24 23 23 23 23 23 24 25 25 24
25 25 24 24 24 24 24 24 24 24 24 23 23 23 23 23 22 22 22 22 22 21 21 21 22 22 22 22 22 22 22 23 23 23 23 23 23 23 24 24 24 24
25 24 24 24 24 24 24 24 24 23 23 23 23 23 23 22 22 22 22 21 23 21 21 21 21 21 22 22 22 22 22 22 23 23 23 23 23 24 25 24 24 24
25 23 24 24 24 23 24 24 23 23 22 23 22 21 22 22 21 21 21 20 20 20 20 21 21 21 21 21 21 22 22 22 23 23 23 23 23 24 24 24 24 24
25 24 24 23 23 23 23 23 22 21 21 21 21 20 20 20 20 20 20 20 20 20 20 21 21 21 21 21 21 21 22 22 22 22 22 23 23 23 23 23 24 24
24 24 23 23 23 22 22 21 21 20 20 20 19 20 20 20 19 19 19 19 20 19 20 20 20 20 20 20 21 21 21 21 21 21 21 21 22 22 22 22 23 23
24 23 23 22 22 21 20 20 20 19 18 18 17 17 19 18 18 18 17 17 18 18 18 19 18 19 20 20 20 21 21 21 21 20 20 20 20 20 21 21 21 22
23 22 22 21 20 19 18 17 16 16 16 15 16 15 15 15 15 15 15 15 15 15 15 16 16 17 19 23 24 22 21 21 21 20 20 20 19 19 19 20 21 21
21 20 18 18 18 16 13 14 16 13 12 13 12 12 12 13 13 14 13 13 13 13 13 14 15 16 20 22 24 25 23 21 21 20 20 20 19 18 18 19 20 21
19 18 15 15 14 13 12 11 11 10 10 10 9 10 10 10 11 12 11 12 12 12 11 12 12 16 19 21 23 24 24 22 21 20 19 19 19 19 19 19 19 19
16 13 12 11 11 10 10 9 8 9 7 7 7 7 8 9 11 9 10 10 10 9 9 10 10 15 18 21 22 23 23 23 20 20 18 18 18 18 18 17 17 16
13 10 11 10 10 8 9 7 7 6 6 6 6 8 8 7 6 7 8 8 8 8 8 9 9 13 18 20 21 22 23 23 20 19 18 17 17 17 16 16 16 15
13 10 9 9 8 7 6 6 5 5 7 6 5 7 6 5 5 5 5 5 5 6 6 6 8 14 18 19 20 21 22 22 18 17 16 15 16 16 16 16 16 15
9 7 7 7 8 6 5 6 6 4 3 4 3 4 3 3 4 2 4 3 4 4 4 4 7 14 16 18 20 21 22 18 16 14 14 14 14 16 16 16 16 16
11 7 6 6 5 5 3 4 5 3 3 2 1 3 4 2 2 2 2 3 3 3 3 4 4 9 15 18 19 20 19 15 15 14 14 13 14 15 16 16 16 16
9 5 5 3 2 2 2 5 3 2 1 1 2 2 2 1 1 1 1 1 2 1 2 3 4 9 15 16 18 18 18 15 14 13 12 13 13 15 16 16 17 18
4 4 4 2 1 2 0 1 1 -0 0 -0 -1 -2 0 0 1 0 0 -0 -0 2 6 6 4 6 12 14 16 18 17 15 15 13 12 13 13 14 15 15 16 17
3 2 2 -0 2 -0 -0 -0 -1 -2 -2 -1 -2 -2 -1 -1 -1 -1 -1 -1 0 1 1 2 2 3 6 14 16 18 19 16 15 13 12 12 13 13 13 14 15 15
MSLP
1028.28 1028.44 1028.60 1028.72 1028.96 1029.08 1029.16 1029.24 1029.40 1029.44 1029.64 1029.76 1029.76 1029.92 1029.96 1030.04 1029.96 1029.88 1029.84 1029.72 1029.68 1029.64 1029.56 1029.40 1029.16 1028.92 1028.72 1028.60 1028.56 1028.48 1028.40 1028.36 1028.20 1028.00 1028.00 1027.84 1027.68 1027.60 1027.44 1027.36 1027.28 1027.28
1028.60 1028.68 1028.84 1029.00 1029.16 1029.28 1029.44 1029.48 1029.56 1029.56 1029.68 1029.84 1029.96 1030.08 1030.08 1030.08 1030.08 1030.04 1029.96 1029.92 1029.88 1029.88 1029.80 1029.52 1029.28 1029.04 1028.80 1028.68 1028.60 1028.52 1028.48 1028.44 1028.32 1028.20 1028.16 1028.00 1027.88 1027.76 1027.60 1027.52 1027.40 1027.28
1028.84 1028.84 1028.96 1029.00 1029.20 1029.36 1029.52 1029.68 1029.72 1029.76 1029.84 1030.00 1030.12 1030.16 1030.24 1030.32 1030.32 1030.28 1030.24 1030.20 1030.16 1030.04 1029.80 1029.60 1029.36 1029.16 1029.08 1029.00 1028.92 1028.84 1028.72 1028.52 1028.32 1028.20 1028.16 1028.08 1028.00 1027.84 1027.76 1027.60 1027.40 1027.24
1029.08 1029.12 1029.16 1029.28 1029.36 1029.48 1029.72 1029.76 1029.92 1030.00 1030.08 1030.16 1030.28 1030.40 1030.48 1030.48 1030.48 1030.44 1030.36 1030.28 1030.20 1030.04 1029.84 1029.68 1029.52 1029.44 1029.32 1029.20 1029.08 1029.00 1028.88 1028.80 1028.64 1028.48 1028.28 1028.16 1028.08 1027.96 1027.76 1027.60 1027.44 1027.32
1028.92 1029.08 1029.24 1029.36 1029.52 1029.64 1029.72 1029.72 1029.88 1030.12 1030.20 1030.32 1030.40 1030.44 1030.36 1030.28 1030.20 1030.12 1030.08 1030.12 1030.12 1030.12 1029.96 1029.88 1029.80 1029.68 1029.56 1029.44 1029.28 1029.16 1029.00 1028.92 1028.76 1028.60 1028.44 1028.28 1028.12 1027.96 1027.80 1027.60 1027.44 1027.24
1029.00 1029.08 1029.16 1029.24 1029.36 1029.44 1029.52 1029.68 1029.84 1029.92 1030.00 1030.00 1030.08 1030.20 1030.20 1030.24 1030.28 1030.28 1030.24 1030.24 1030.24 1030.16 1030.04 1029.92 1029.84 1029.72 1029.56 1029.44 1029.28 1029.20 1029.08 1028.92 1028.76 1028.64 1028.52 1028.36 1028.12 1028.00 1027.88 1027.64 1027.48 1027.28
1028.92 1029.08 1029.24 1029.44 1029.56 1029.72 1029.76 1029.88 1029.96 1030.00 1030.08 1030.24 1030.28 1030.28 1030.44 1030.40 1030.40 1030.36 1030.32 1030.32 1030.20 1030.08 1029.96 1029.84 1029.72 1029.60 1029.52 1029.40 1029.32 1029.20 1029.08 1028.96 1028.80 1028.64 1028.52 1028.36 1028.16 1027.92 1027.84 1027.72 1027.56 1027.40
1029.16 1029.36 1029.48 1029.60 1029.56 1029.68 1029.72 1029.88 1030.00 1030.12 1030.28 1030.40 1030.44 1030.52 1030.56 1030.52 1030.48 1030.48 1030.40 1030.32 1030.20 1030.08 1029.96 1029.88 1029.80 1029.64 1029.52 1029.40 1029.28 1029.12 1029.00 1028.88 1028.76 1028.64 1028.52 1028.36 1028.20 1028.00 1027.80 1027.72 1027.56 1027.36
1029.16 1029.24 1029.44 1029.56 1029.68 1029.88 1030.00 1030.12 1030.28 1030.36 1030.52 1030.52 1030.56 1030.56 1030.56 1030.48 1030.44 1030.36 1030.32 1030.24 1030.20 1030.08 1030.00 1029.96 1029.84 1029.72 1029.60 1029.48 1029.36 1029.24 1029.04 1028.88 1028.80 1028.68 1028.56 1028.36 1028.16 1027.96 1027.84 1027.68 1027.44 1027.24
1029.16 1029.44 1029.60 1029.76 1029.84 1030.08 1030.12 1030.24 1030.36 1030.36 1030.44 1030.40 1030.40 1030.40 1030.36 1030.32 1030.32 1030.28 1030.24 1030.20 1030.16 1030.08 1030.04 1029.96 1029.84 1029.72 1029.60 1029.48 1029.40 1029.24 1029.08 1028.88 1028.72 1028.64 1028.48 1028.36 1028.20 1027.96 1027.72 1027.56 1027.40 1027.08
1029.24 1029.48 1029.60 1029.76 1029.92 1030.08 1030.08 1030.16 1030.20 1030.24 1030.28 1030.32 1030.36 1030.36 1030.28 1030.32 1030.28 1030.28 1030.28 1030.20 1030.20 1030.12 1030.04 1029.96 1029.84 1029.72 1029.56 1029.44 1029.32 1029.16 1029.04 1028.84 1028.68 1028.52 1028.36 1028.16 1027.96 1027.80 1027.56 1027.40 1027.20 1027.00
1029.20 1029.40 1029.60 1029.72 1029.84 1029.88 1029.96 1030.04 1030.12 1030.20 1030.28 1030.32 1030.36 1030.36 1030.32 1030.28 1030.32 1030.32 1030.24 1030.24 1030.20 1030.12 1030.04 1029.92 1029.80 1029.64 1029.52 1029.36 1029.20 1029.00 1028.88 1028.72 1028.52 1028.32 1028.12 1027.92 1027.68 1027.52 1027.36 1027.20 1027.04 1026.80
1029.20 1029.36 1029.52 1029.64 1029.72 1029.80 1029.92 1030.08 1030.16 1030.24 1030.28 1030.32 1030.28 1030.28 1030.24 1030.24 1030.28 1030.24 1030.24 1030.20 1030.16 1030.04 1029.96 1029.88 1029.76 1029.64 1029.48 1029.28 1029.12 1028.92 1028.72 1028.48 1028.28 1028.08 1027.88 1027.68 1027.44 1027.32 1027.16 1027.04 1026.92 1026.72
1029.16 1029.32 1029.52 1029.60 1029.72 1029.84 1029.96 1030.04 1030.12 1030.12 1030.20 1030.24 1030.24 1030.24 1030.24 1030.28 1030.24 1030.24 1030.20 1030.20 1030.08 1030.04 1030.00 1029.92 1029.76 1029.64 1029.48 1029.28 1029.04 1028.80 1028.52 1028.32 1028.16 1027.96 1027.68 1027.48 1027.28 1027.12 1027.00 1026.88 1026.72 1026.56
1029.08 1029.40 1029.52 1029.64 1029.72 1029.72 1029.76 1029.88 1030.00 1030.12 1030.20 1030.28 1030.28 1030.32 1030.36 1030.36 1030.36 1030.32 1030.24 1030.20 1030.16 1030.12 1030.08 1029.96 1029.88 1029.72 1029.56 1029.28 1028.92 1028.56 1028.44 1028.20 1028.04 1027.88 1027.72 1027.40 1027.04 1026.84 1026.72 1026.68 1026.48 1026.28
1029.08 1029.28 1029.40 1029.48 1029.44 1029.48 1029.72 1029.88 1030.00 1030.12 1030.24 1030.28 1030.36 1030.44 1030.48 1030.44 1030.44 1030.40 1030.32 1030.28 1030.24 1030.20 1030.12 1030.08 1029.96 1029.88 1029.64 1029.20 1028.84 1028.56 1028.24 1028.04 1027.88 1027.68 1027.52 1027.28 1027.00 1026.72 1026.48 1026.44 1026.28 1026.08
1029.04 1029.16 1029.24 1029.28 1029.52 1029.68 1029.88 1029.96 1030.08 1030.24 1030.32 1030.40 1030.52 1030.56 1030.52 1030.52 1030.48 1030.40 1030.40 1030.36 1030.32 1030.24 1030.20 1030.08 1030.04 1029.92 1029.48 1029.08 1028.76 1028.44 1028.24 1027.96 1027.72 1027.44 1027.32 1027.20 1027.00 1026.76 1026.44 1026.16 1026.04 1025.96
1028.84 1029.08 1029.24 1029.48 1029.64 1029.72 1030.00 1030.16 1030.28 1030.28 1030.36 1030.48 1030.56 1030.56 1030.60 1030.56 1030.52 1030.48 1030.52 1030.40 1030.32 1030.28 1030.20 1030.12 1030.04 1029.80 1029.36 1028.96 1028.56 1028.28 1028.04 1027.84 1027.56 1027.40 1027.16 1027.04 1026.84 1026.64 1026.40 1026.20 1026.00 1025.84
1028.84 1028.96 1029.20 1029.44 1029.64 1029.92 1030.08 1030.16 1030.12 1030.08 1030.24 1030.40 1030.48 1030.64 1030.64 1030.60 1030.60 1030.60 1030.48 1030.44 1030.36 1030.28 1030.16 1030.08 1030.00 1029.72 1029.24 1028.72 1028.36 1028.08 1027.84 1027.64 1027.40 1027.28 1027.12 1026.88 1026.72 1026.60 1026.40 1026.32 1026.16 1025.96
1028.80 1028.96 1029.04 1029.44 1029.80 1029.92 1030.04 1029.96 1029.96 1030.12 1030.40 1030.52 1030.60 1030.60 1030.56 1030.60 1030.56 1030.52 1030.48 1030.44 1030.40 1030.32 1030.16 1030.04 1029.96 1029.64 1029.00 1028.52 1028.16 1027.88 1027.60 1027.36 1027.16 1027.08 1027.00 1026.88 1026.76 1026.64 1026.44 1026.32 1026.16 1025.96
1028.80 1028.96 1029.04 1029.52 1029.80 1029.96 1030.00 1029.96 1030.12 1030.36 1030.40 1030.52 1030.68 1030.68 1030.68 1030.60 1030.56 1030.52 1030.48 1030.48 1030.44 1030.32 1030.20 1029.96 1029.84 1029.36 1028.76 1028.36 1028.04 1027.68 1027.32 1027.08 1027.08 1027.12 1027.00 1026.84 1026.64 1026.44 1026.24 1026.04 1025.96 1025.80
1028.80 1028.92 1029.20 1029.56 1029.80 1029.96 1029.88 1029.92 1030.28 1030.36 1030.44 1030.64 1030.76 1030.80 1030.76 1030.72 1030.72 1030.68 1030.60 1030.48 1030.44 1030.32 1030.12 1029.80 1029.64 1029.24 1028.72 1028.28 1027.84 1027.48 1027.08 1027.08 1027.16 1027.04 1026.84 1026.56 1026.32 1026.12 1025.92 1025.80 1025.68 1025.48
1028.96 1029.04 1029.24 1029.56 1029.92 1029.88 1029.88 1030.16 1030.32 1030.44 1030.64 1030.76 1030.80 1030.84 1030.80 1030.76 1030.76 1030.68 1030.60 1030.48 1030.32 1030.24 1030.08 1029.64 1029.48 1029.20 1028.60 1028.04 1027.64 1027.32 1027.08 1027.00 1026.84 1026.68 1026.48 1026.28 1025.96 1025.72 1025.52 1025.36 1025.20 1025.04
1029.20 1029.36 1029.40 1029.72 1030.04 1029.84 1030.08 1030.40 1030.52 1030.60 1030.68 1030.76 1030.84 1030.76 1030.72 1030.68 1030.64 1030.52 1030.40 1030.36 1030.20 1030.04 1030.00 1029.56 1029.00 1028.84 1028.36 1027.88 1027.56 1027.28 1026.96 1026.72 1026.56 1026.40 1026.12 1025.88 1025.44 1025.20 1025.08 1024.84 1024.72 1024.56
1029.36 1029.60 1029.72 1029.92 1029.92 1030.00 1030.20 1030.28 1030.36 1030.48 1030.60 1030.72 1030.80 1030.76 1030.68 1030.60 1030.52 1030.36 1030.16 1030.08 1030.04 1029.84 1029.56 1029.28 1028.84 1028.60 1028.36 1027.84 1027.40 1027.00 1026.72 1026.40 1026.16 1025.92 1025.56 1025.28 1025.04 1024.64 1024.48 1024.36 1023.96 1023.88
1029.52 1029.68 1029.84 1029.84 1029.76 1030.00 1030.20 1030.28 1030.36 1030.44 1030.52 1030.56 1030.72 1030.72 1030.60 1030.56 1030.48 1030.32 1030.04 1029.72 1029.68 1029.56 1029.40 1029.28 1028.92 1028.40 1028.32 1027.60 1027.08 1026.64 1026.28 1026.04 1025.72 1025.52 1025.16 1024.84 1024.60 1024.24 1023.76 1023.32 1023.20 1022.88
Wind_Speed
7 6 7 7 7 6 6 6 5 6 6 5 6 5 6 4 5 6 6 7 7 7 7 7 6 7 7 6 6 5 6 5 5 5 6 6 5 5 6 5 4 3
6 6 6 6 6 5 5 5 5 6 5 5 4 4 4 5 6 5 6 6 6 6 5 6 7 7 8 8 8 7 6 6 6 4 5 5 4 4 5 5 4 4
5 6 6 6 6 5 5 4 5 4 5 4 3 3 4 3 4 4 4 4 5 5 6 6 6 7 7 7 6 6 7 8 8 7 6 5 5 5 5 5 5 5
6 6 6 5 5 5 4 5 3 3 3 4 3 1 1 1 1 1 2 3 4 4 5 5 6 5 5 6 5 6 5 5 5 5 6 5 5 5 6 5 5 5
5 5 5 5 4 4 4 5 4 3 3 1 1 1 3 4 4 6 6 6 5 5 5 4 4 4 4 4 4 5 4 5 5 4 5 6 5 5 5 6 7 7
4 4 4 5 4 5 6 5 4 4 4 5 5 4 5 4 5 5 5 5 5 4 4 4 4 4 4 4 5 5 6 7 6 5 6 6 7 4 5 5 6 7
4 4 4 3 4 3 4 3 3 3 3 3 3 4 3 4 4 4 4 4 5 5 5 6 6 6 5 4 5 5 5 5 6 6 7 7 7 8 5 5 6 7
3 2 3 2 3 3 3 3 2 2 1 2 2 2 1 3 3 3 3 4 4 4 5 5 5 5 6 5 6 7 6 5 6 7 7 8 6 8 8 7 7 9
3 2 2 2 2 1 1 1 0 0 1 0 0 1 1 1 3 3 3 3 3 4 4 4 4 4 4 4 5 5 7 7 6 6 7 8 9 9 8 7 9 9
3 1 2 1 2 2 1 1 0 0 0 1 1 2 2 3 3 3 3 3 3 3 3 3 4 4 4 4 4 5 6 7 7 6 7 7 7 9 9 8 9 10
4 3 3 3 2 2 1 1 1 1 1 1 1 2 2 2 2 2 2 3 3 3 3 3 4 4 4 4 4 4 5 6 6 6 7 8 8 8 8 9 9 9
4 3 4 3 3 2 1 1 1 1 1 1 1 2 1 1 2 2 3 3 3 3 3 3 3 4 4 5 5 4 5 6 6 7 7 8 8 8 8 7 8 10
4 5 4 3 3 2 2 2 2 2 2 2 2 3 3 4 3 3 3 3 4 3 4 4 5 4 5 4 5 5 6 7 7 7 8 8 8 8 9 9 9 10
5 4 4 3 3 3 3 2 2 2 3 2 2 4 4 4 5 5 4 3 4 4 4 4 5 4 4 5 6 6 7 7 7 9 9 10 10 10 9 9 9 9
5 4 3 3 3 3 2 2 2 2 2 3 2 3 3 3 4 4 5 4 4 4 4 4 5 5 4 6 7 7 7 8 8 9 10 11 11 10 9 8 8 8
5 4 4 3 3 3 3 2 2 2 2 2 2 2 2 2 3 3 3 4 5 5 4 4 4 4 7 14 13 9 9 8 9 8 8 9 9 10 9 7 8 8
5 4 3 3 2 3 1 1 2 1 1 1 1 2 2 3 3 4 3 4 4 5 5 5 4 5 13 14 15 17 12 11 11 11 11 11 10 11 11 11 11 11
4 4 3 3 2 2 1 0 0 1 1 1 1 2 3 2 3 3 4 4 4 4 5 5 5 9 15 15 16 16 15 11 11 11 11 10 11 12 12 12 13 12
4 4 3 2 1 1 1 1 2 3 3 3 3 3 2 3 4 5 4 4 5 6 6 6 6 11 15 17 17 17 17 15 10 10 11 11 11 12 12 12 11 12
4 3 2 1 1 1 1 2 3 3 2 2 3 3 3 3 3 4 4 5 5 7 7 7 7 11 17 18 17 18 17 16 10 11 10 11 12 12 11 12 12 12
4 3 2 1 1 1 2 2 3 2 3 3 3 4 5 5 6 6 5 4 5 6 7 8 7 15 17 18 18 18 19 16 9 10 10 11 11 11 12 12 12 12
3 2 1 1 1 1 2 2 2 2 3 3 3 3 3 3 3 3 5 6 5 6 7 9 7 15 18 18 18 18 20 11 9 10 11 11 11 11 12 12 12 12
3 2 1 1 0 1 1 1 1 2 2 2 3 3 4 4 4 4 4 6 6 5 7 9 7 11 17 19 19 20 16 8 9 9 10 11 12 11 11 12 12 12
3 3 2 1 0 0 0 0 0 1 1 1 3 5 6 4 5 6 4 4 6 7 6 10 9 11 18 19 19 19 16 10 9 7 10 11 13 12 12 12 13 21
3 2 2 2 1 0 0 0 1 1 1 2 3 3 5 4 5 6 6 4 4 7 11 12 11 12 16 19 20 19 15 9 8 8 9 11 11 12 12 13 13 14
3 2 2 1 1 0 0 0 1 1 2 2 3 3 5 5 5 6 8 8 5 6 7 7 10 10 10 20 19 19 19 12 8 7 9 12 13 12 12 9 9 10
Wind_Direction
76 73 79 76 72 72 71 68 57 66 58 49 49 27 29 3 9 18 15 17 18 18 12 10 10 16 15 19 21 18 22 13 4 4 3 1 359 3 351 343 341 324
72 77 81 82 73 68 65 68 65 68 57 51 42 31 19 21 11 17 13 15 15 15 6 10 11 13 13 13 9 11 8 10 4 360 1 357 344 350 337 332 321 311
78 77 76 75 83 77 73 60 63 56 58 41 32 31 19 20 10 6 8 14 14 7 9 7 10 11 12 10 7 6 2 356 355 349 356 349 341 338 324 319 320 319
76 84 85 81 80 83 82 80 68 63 60 49 46 5 38 346 2 360 19 24 27 14 9 8 10 2 7 0 360 360 351 348 333 335 336 337 339 333 327 322 312 311
91 83 81 88 92 90 86 77 67 74 73 72 69 46 25 19 16 15 15 14 19 9 6 6 3 0 359 353 352 348 340 336 323 332 331 325 324 330 320 326 321 318
73 80 77 80 66 67 56 54 43 38 27 25 14 11 17 12 14 8 5 6 4 2 357 359 3 358 355 353 352 353 344 342 335 337 331 325 319 317 308 308 304 304
85 79 81 83 80 82 92 78 50 45 32 14 7 11 5 3 7 356 356 357 352 354 355 350 356 349 350 348 344 340 339 331 328 333 329 324 323 323 326 318 312 305
138 130 119 92 87 64 68 56 36 37 21 14 24 326 358 340 347 341 350 347 353 345 347 348 342 343 336 346 339 335 333 331 329 326 321 316 320 316 323 324 316 313
133 118 77 71 90 102 96 172 186 207 189 135 161 313 325 351 341 350 345 350 348 339 340 339 334 326 325 328 322 319 317 318 318 317 314 315 316 312 314 313 312 308
149 130 127 152 159 188 172 190 185 175 128 50 23 2 359 340 346 336 346 342 337 332 331 327 322 316 316 313 308 308 306 306 309 308 305 301 299 302 306 305 302 303
182 175 170 183 186 186 177 156 79 56 38 35 43 4 339 340 340 337 342 337 338 328 325 322 314 312 311 306 300 294 292 295 298 298 297 295 293 293 294 297 296 293
198 187 192 192 189 181 167 138 105 79 70 17 47 355 351 349 360 357 347 339 333 326 321 316 318 316 310 307 302 303 299 295 293 292 292 292 293 292 291 292 293 294
194 196 194 192 184 174 159 139 117 105 66 38 7 8 5 0 359 358 349 348 332 337 333 332 327 320 316 309 311 307 305 303 305 302 298 298 297 298 298 296 292 292
195 197 192 189 173 160 145 130 102 70 47 21 15 8 11 360 353 348 340 341 331 340 333 332 324 323 317 316 306 307 307 308 309 308 307 304 300 297 295 295 294 293
191 194 185 172 164 138 107 82 68 59 38 21 17 11 5 345 346 337 331 334 338 336 334 332 330 322 331 316 315 313 311 307 310 305 302 300 299 298 297 295 290 287
185 179 168 155 124 104 93 70 63 42 28 22 20 7 343 336 333 324 326 332 331 328 331 327 319 324 311 315 318 316 313 310 304 299 298 299 301 302 300 297 294 297
173 170 140 129 120 97 92 63 45 34 35 36 13 351 343 340 327 330 341 328 325 324 323 321 318 312 313 315 316 316 315 310 308 306 306 305 302 302 304 307 308 308
170 150 135 134 116 94 98 89 85 54 50 36 7 360 344 331 334 337 326 325 321 320 316 314 313 313 314 313 314 315 314 310 306 303 304 302 302 303 303 305 306 307
150 145 141 124 101 108 82 40 43 27 23 10 7 345 328 342 334 331 324 327 323 321 319 315 309 314 311 311 312 313 313 312 303 302 300 300 301 301 301 302 303 302
140 131 125 120 105 69 40 31 35 23 9 358 346 341 346 332 333 331 328 328 327 319 313 312 307 308 309 310 313 312 312 311 303 303 299 297 299 298 297 296 295 295
131 126 120 124 73 55 30 35 29 10 8 4 359 341 340 334 332 329 323 320 316 312 306 304 303 306 308 310 311 312 312 315 309 305 297 292 290 290 292 293 292 290
133 124 123 96 67 29 37 14 22 12 0 348 338 323 303 306 301 299 306 309 306 305 302 299 298 306 306 308 309 313 315 315 309 298 294 290 289 290 291 292 289 286
129 130 132 111 93 40 26 357 8 356 357 340 329 313 311 308 296 295 294 298 300 298 299 295 295 301 303 307 311 313 315 299 300 297 293 292 288 286 287 290 289 285
134 136 140 153 161 161 175 324 36 341 305 336 323 314 309 300 301 299 285 285 292 294 291 294 294 300 305 307 310 310 308 303 299 284 285 288 289 285 286 285 286 287
140 142 153 166 172 161 143 351 324 311 303 304 283 286 288 299 300 299 295 285 277 284 295 297 294 298 302 304 305 306 305 291 286 280 277 284 290 290 282 279 274 270
148 151 167 155 148 114 143 238 297 335 316 312 305 293 296 302 296 295 295 293 289 286 285 283 289 289 294 300 302 302 302 299 287 282 285 289 286 278 281 262 240 242